Tracking 19644 objects as of 24-Apr-2019
HD Live streaming from Space Station
objects crossing your sky now

MICROSAT-R


MICROSAT-R is no longer on orbit


NORAD ID: 43947
Int'l Code: 2019-006A
Perigee: N/A
Apogee: N/A
Inclination: N/A
Period: N/A
Semi major axis: N/A
RCS: N/A
Launch date: January 24, 2019
Source: India (IND)
Launch site: SRIHARIKOTA (SRI)
Decay date: 2019-03-27
aabbcc
Your satellite tracking list
Your tracking list is empty




NASA's NSSDC Master Catalog

Two Line Element Set (TLE):
1 43947U 19006A   19112.71822926 +.00084857 +18899-5 +97320-4 0  9991
2 43947 096.6264 025.8230 0093772 183.2048 176.8645 16.00532142004179
Source of the keplerian elements: AFSPC